CZ-4 DEB

Satellite information

Favourite Embed

Satellite Type and Status

DEBRISIN ORBIT

Key statistics

Satellite CZ-4 DEB at a glance.

Uptime

12726

Days in orbit

Revolutions

≈ 14.3

Per day

Orbit

SSO

Sun Synchronous Orbit

Inclination

98.4

Latest

Satellite identification and parameters

Extended collection of information and parameters for CZ-4 DEB.

Object identification

Identified? True

Debris? True

Object name: CZ-4 DEB

International designator: 1990-081CH

Object number (NORAD): 21911

Object ID (CCSDS): 21911

Country: PEOPLES REPUBLIC OF CHINA (PRC)

Current information (Y/N): Y

RCS size: SMALL

Orbital parameters

Period: 100.396 minutes

Inclination: 98.3707 deg

SMA: 7155.455 km

Apoapsis: 813.182 km

Periapsis: 741.457 km

RAAN: 203.2652 deg

Eccentricy: 0.0050119

Argument of periapsis: 196.7645 deg

Mean anomaly: 290.9178 deg

Mean motion: 14.34322789 rev/day

Mean motion (dot): 0.00000729 rev/day2

B* drag term: 0.00027082 1/REarth

Two-line elements (TLE)

Creation date: July 6, 2025, 10:36 p.m.

Reference frame: TEME

Reference center: EARTH

Epoch: July 6, 2025, 2:44 p.m. UTC

TLE line 0: 0 CZ-4 DEB

TLE line 1: 1 21911U 90081CH 25187.61391339 .00000729 00000-0 27082-3 0 9990

TLE line 2: 2 21911 98.3707 203.2652 0050119 196.7645 290.9178 14.34322789801158

Live tracking on map

Real-time ground track for satellite CZ-4 DEB.

In-orbit conjunctions

A list of the most updated potential collisions computed for object CZ-4 DEB.

Target Orbit TCA Probability of collision Miss distance Type
COSMOS 540 LEO 2024-11-11 15:18:22 0.001478399 255.0 (m) PAYLOAD

Associated space launch

Chinese polar orbiting meteorological satellite

CZ-4 DEB was lifted into orbit during the mission ‘Long March 4A | Feng Yun 1B’, on board a Long March 4A space rocket.

The launch took place on Sept. 3, 1990, 12:53 a.m. from Launch Complex 7.

For more information about the launch, click the button.

Launch to space Long March 4A | Feng Yun 1B
Long March 4A | Feng Yun 1B

Agency: N/A

Status: Launch Successful

Launch date: Sept. 3, 1990, 12:53 a.m. UTC

Rocket: Long March 4A

Launch pad: Launch Complex 7

Location: Taiyuan Satellite Launch Center, People's Republic of China

...

Latest news about this satellite

There are no fresh news available about this satellite. Check back as we update our databases every day.


Newsletter sign-up

Weekly statistics, charts and insights to help you stay on top of the space industry.